QPF
0.03 0.02 0.02 0.02 0.02 0.02 0.02 0.02 0.04 0.06 0.05 0.04 0.04 0.03 0.02 0.02 0.02 0.02 0.03 0.03 0.04 0.04 0.05 0.07 0.08 0.07 0.07 0.06 0.06 0.05 0.04 0.04 0.04 0.05 0.04 0.03 0.02 0.02 0.02 0.02 0.02 0.02 0.02
0.02 0.02 0.02 0.01 0.02 0.02 0.01 0.01 0.02 0.03 0.04 0.04 0.04 0.03 0.02 0.02 0.01 0.01 0.03 0.03 0.04 0.04 0.06 0.07 0.07 0.08 0.09 0.08 0.06 0.05 0.04 0.03 0.03 0.03 0.04 0.04 0.04 0.02 0.02 0.02 0.02 0.02 0.03
0.01 0.02 0.03 0.02 0.02 0.02 0.02 0.01 0.02 0.02 0.03 0.03 0.04 0.04 0.03 0.02 0.02 0.02 0.02 0.02 0.02 0.04 0.05 0.06 0.07 0.08 0.09 0.08 0.07 0.06 0.04 0.03 0.03 0.03 0.03 0.04 0.05 0.04 0.03 0.03 0.02 0.03 0.02
0.01 0.01 0.02 0.02 0.03 0.05 0.03 0.02 0.02 0.02 0.02 0.02 0.03 0.03 0.03 0.03 0.03 0.02 0.02 0.02 0.02 0.03 0.04 0.05 0.06 0.06 0.07 0.07 0.07 0.06 0.06 0.05 0.04 0.04 0.05 0.05 0.05 0.04 0.04 0.04 0.03 0.03 0.02
0.02 0.01 0.01 0.02 0.03 0.04 0.04 0.04 0.03 0.02 0.02 0.02 0.03 0.04 0.05 0.04 0.04 0.04 0.03 0.02 0.02 0.02 0.03 0.05 0.05 0.05 0.04 0.05 0.06 0.07 0.06 0.07 0.06 0.06 0.05 0.05 0.04 0.04 0.03 0.04 0.04 0.04 0.03
0.02 0.02 0.03 0.03 0.04 0.04 0.05 0.06 0.04 0.03 0.03 0.04 0.05 0.06 0.06 0.05 0.04 0.03 0.03 0.03 0.02 0.02 0.03 0.05 0.05 0.04 0.04 0.04 0.07 0.07 0.07 0.06 0.06 0.06 0.05 0.04 0.04 0.04 0.04 0.04 0.03 0.04 0.04
0.04 0.03 0.04 0.04 0.06 0.05 0.05 0.06 0.06 0.06 0.05 0.06 0.08 0.07 0.06 0.04 0.03 0.02 0.01 0.02 0.02 0.02 0.03 0.04 0.04 0.04 0.03 0.03 0.06 0.07 0.07 0.07 0.07 0.06 0.05 0.05 0.04 0.04 0.03 0.04 0.04 0.03 0.03
0.03 0.02 0.02 0.03 0.05 0.06 0.06 0.05 0.05 0.07 0.06 0.06 0.06 0.06 0.05 0.04 0.03 0.02 0.01 0.01 0.02 0.02 0.03 0.03 0.04 0.04 0.03 0.02 0.03 0.06 0.06 0.07 0.08 0.08 0.06 0.06 0.05 0.03 0.03 0.03 0.03 0.04 0.04
0.03 0.03 0.02 0.02 0.04 0.05 0.05 0.05 0.04 0.04 0.05 0.05 0.04 0.04 0.03 0.02 0.02 0.01 0.01 0.01 0.02 0.03 0.02 0.03 0.04 0.04 0.03 0.04 0.03 0.04 0.05 0.05 0.06 0.07 0.07 0.07 0.05 0.04 0.03 0.03 0.03 0.05 0.06
0.02 0.02 0.02 0.03 0.03 0.04 0.04 0.05 0.05 0.03 0.02 0.03 0.04 0.04 0.03 0.02 0.02 0.02 0.01 0.01 0.01 0.02 0.02 0.02 0.03 0.04 0.03 0.03 0.04 0.03 0.04 0.04 0.05 0.06 0.07 0.07 0.06 0.05 0.03 0.03 0.04 0.05 0.06
0.01 0.02 0.02 0.03 0.03 0.04 0.04 0.05 0.04 0.04 0.03 0.02 0.02 0.03 0.04 0.03 0.02 0.02 0.01 0.01 0.01 0.01 0.01 0.02 0.02 0.03 0.04 0.03 0.03 0.03 0.03 0.03 0.03 0.05 0.07 0.08 0.09 0.07 0.04 0.03 0.02 0.03 0.03
0.01 0.02 0.02 0.03 0.03 0.03 0.04 0.05 0.05 0.05 0.05 0.04 0.03 0.03 0.04 0.04 0.03 0.02 0.01 0.01 0.02 0.02 0.01 0.01 0.01 0.02 0.03 0.03 0.03 0.02 0.01 0.02 0.02 0.02 0.04 0.06 0.08 0.08 0.05 0.03 0.03 0.03 0.02
0.03 0.03 0.03 0.03 0.04 0.03 0.03 0.04 0.04 0.04 0.04 0.04 0.04 0.04 0.04 0.05 0.05 0.03 0.02 0.01 0.01 0.01 0.01 0.02 0.01 0.02 0.02 0.03 0.03 0.02 0.01 0.01 0.01 0.02 0.04 0.06 0.05 0.05 0.05 0.05 0.04 0.04 0.03
0.05 0.04 0.03 0.04 0.04 0.04 0.04 0.04 0.04 0.04 0.05 0.05 0.04 0.04 0.04 0.04 0.05 0.06 0.04 0.02 0.01 0.01 0.01 0.01 0.01 0.01 0.02 0.01 0.02 0.02 0.01 0.01 0.01 0.02 0.04 0.05 0.04 0.03 0.03 0.04 0.04 0.03 0.02
0.05 0.04 0.05 0.05 0.05 0.05 0.04 0.04 0.04 0.05 0.06 0.06 0.05 0.04 0.04 0.04 0.03 0.05 0.05 0.04 0.03 0.02 0.01 0.00 0.00 0.01 0.01 0.01 0.02 0.01 0.01 0.02 0.01 0.02 0.03 0.03 0.03 0.02 0.02 0.02 0.03 0.04 0.03
0.06 0.06 0.06 0.06 0.06 0.05 0.04 0.04 0.04 0.04 0.05 0.05 0.05 0.05 0.03 0.03 0.02 0.03 0.03 0.03 0.03 0.02 0.02 0.01 0.01 0.01 0.01 0.01 0.03 0.02 0.01 0.02 0.02 0.02 0.03 0.03 0.03 0.03 0.03 0.03 0.03 0.03 0.03
0.07 0.07 0.07 0.07 0.06 0.05 0.04 0.04 0.04 0.05 0.05 0.04 0.04 0.03 0.02 0.02 0.02 0.03 0.03 0.03 0.03 0.03 0.02 0.01 0.01 0.01 0.01 0.01 0.02 0.02 0.02 0.02 0.02 0.02 0.02 0.03 0.03 0.02 0.02 0.02 0.01 0.01 0.01
0.08 0.07 0.06 0.06 0.06 0.06 0.06 0.05 0.05 0.05 0.05 0.05 0.05 0.04 0.03 0.02 0.02 0.02 0.02 0.03 0.03 0.04 0.03 0.02 0.01 0.01 0.02 0.02 0.01 0.02 0.02 0.02 0.02 0.02 0.02 0.01 0.01 0.01 0.01 0.01 0.01 0.00 0.01
0.05 0.05 0.04 0.04 0.05 0.06 0.07 0.07 0.06 0.05 0.05 0.04 0.04 0.03 0.03 0.03 0.02 0.02 0.03 0.03 0.03 0.03 0.03 0.03 0.02 0.03 0.02 0.02 0.02 0.01 0.01 0.01 0.02 0.02 0.01 0.01 0.01 0.00 0.01 0.00 0.00 0.00 0.00
0.05 0.04 0.04 0.04 0.06 0.07 0.06 0.05 0.04 0.05 0.05 0.04 0.04 0.03 0.02 0.02 0.03 0.03 0.03 0.03 0.04 0.04 0.03 0.03 0.02 0.03 0.02 0.02 0.02 0.01 0.01 0.01 0.01 0.01 0.01 0.01 0.01 0.01 0.00 0.00 0.00 0.00 0.00
0.04 0.05 0.06 0.07 0.07 0.07 0.06 0.06 0.05 0.05 0.04 0.03 0.02 0.02 0.02 0.02 0.03 0.03 0.03 0.03 0.04 0.04 0.03 0.03 0.02 0.02 0.02 0.02 0.01 0.01 0.01 0.01 0.02 0.02 0.01 0.01 0.01 0.01 0.00 0.00 0.00 0.00 0.00
0.03 0.03 0.05 0.05 0.04 0.03 0.03 0.03 0.03 0.03 0.03 0.03 0.02 0.02 0.02 0.02 0.02 0.03 0.03 0.02 0.02 0.02 0.02 0.02 0.02 0.02 0.02 0.02 0.02 0.02 0.02 0.02 0.02 0.02 0.02 0.01 0.01 0.01 0.01 0.01 0.01 0.00 0.00
0.03 0.03 0.04 0.04 0.02 0.02 0.02 0.03 0.03 0.03 0.02 0.02 0.02 0.02 0.02 0.03 0.03 0.03 0.03 0.03 0.02 0.02 0.02 0.02 0.02 0.02 0.02 0.03 0.03 0.03 0.03 0.03 0.02 0.02 0.02 0.02 0.01 0.01 0.01 0.01 0.00 0.00 0.00
0.03 0.03 0.02 0.02 0.02 0.02 0.03 0.03 0.02 0.02 0.02 0.02 0.02 0.02 0.02 0.03 0.04 0.04 0.03 0.02 0.01 0.01 0.01 0.02 0.02 0.03 0.03 0.04 0.04 0.05 0.05 0.05 0.05 0.03 0.03 0.03 0.02 0.02 0.01 0.01 0.00 0.00 0.00
0.03 0.02 0.02 0.02 0.03 0.02 0.03 0.02 0.02 0.01 0.01 0.01 0.01 0.01 0.01 0.02 0.03 0.04 0.02 0.01 0.01 0.00 0.01 0.01 0.01 0.02 0.04 0.05 0.06 0.07 0.07 0.07 0.06 0.05 0.04 0.04 0.04 0.03 0.02 0.01 0.01 0.01 0.01
0.03 0.03 0.02 0.02 0.02 0.02 0.02 0.02 0.01 0.01 0.01 0.01 0.01 0.01 0.01 0.02 0.02 0.02 0.02 0.01 0.00 0.00 0.00 0.01 0.02 0.03 0.03 0.04 0.06 0.07 0.07 0.07 0.08 0.08 0.07 0.07 0.06 0.06 0.05 0.03 0.02 0.02 0.02
MSLP
1018.16 1018.40 1018.58 1018.73 1018.85 1018.97 1019.09 1019.23 1019.37 1019.50 1019.61 1019.69 1019.74 1019.75 1019.75 1019.73 1019.71 1019.70 1019.69 1019.68 1019.67 1019.67 1019.67 1019.68 1019.73 1019.81 1019.94 1020.10 1020.30 1020.50 1020.69 1020.85 1020.98 1021.07 1021.13 1021.18 1021.21 1021.26 1021.31 1021.36 1021.42 1021.47 1021.51
1018.26 1018.52 1018.73 1018.90 1019.06 1019.21 1019.36 1019.51 1019.66 1019.80 1019.90 1019.98 1020.02 1020.02 1020.00 1019.96 1019.90 1019.85 1019.80 1019.76 1019.72 1019.69 1019.69 1019.70 1019.76 1019.85 1019.97 1020.12 1020.29 1020.47 1020.64 1020.79 1020.91 1021.02 1021.11 1021.20 1021.29 1021.39 1021.49 1021.59 1021.69 1021.76 1021.82
1018.22 1018.49 1018.74 1018.96 1019.16 1019.35 1019.54 1019.72 1019.89 1020.03 1020.14 1020.21 1020.24 1020.23 1020.19 1020.12 1020.03 1019.93 1019.84 1019.75 1019.68 1019.63 1019.61 1019.64 1019.69 1019.79 1019.92 1020.07 1020.24 1020.40 1020.55 1020.69 1020.82 1020.95 1021.08 1021.21 1021.35 1021.51 1021.66 1021.81 1021.95 1022.06 1022.14
1018.06 1018.35 1018.62 1018.89 1019.14 1019.38 1019.61 1019.82 1020.01 1020.17 1020.28 1020.36 1020.38 1020.36 1020.30 1020.21 1020.08 1019.94 1019.80 1019.67 1019.56 1019.49 1019.45 1019.47 1019.54 1019.65 1019.79 1019.95 1020.12 1020.29 1020.44 1020.59 1020.73 1020.88 1021.04 1021.21 1021.41 1021.61 1021.82 1022.01 1022.18 1022.33 1022.44
1017.82 1018.11 1018.41 1018.71 1019.01 1019.29 1019.56 1019.80 1020.01 1020.18 1020.31 1020.39 1020.42 1020.40 1020.33 1020.22 1020.08 1019.91 1019.72 1019.55 1019.40 1019.29 1019.24 1019.25 1019.32 1019.44 1019.60 1019.78 1019.97 1020.15 1020.33 1020.49 1020.66 1020.83 1021.02 1021.23 1021.46 1021.71 1021.95 1022.19 1022.39 1022.57 1022.72
1017.54 1017.81 1018.12 1018.44 1018.77 1019.09 1019.39 1019.65 1019.88 1020.07 1020.21 1020.31 1020.36 1020.35 1020.30 1020.20 1020.05 1019.86 1019.66 1019.45 1019.27 1019.13 1019.05 1019.04 1019.10 1019.23 1019.40 1019.61 1019.82 1020.03 1020.24 1020.44 1020.63 1020.83 1021.05 1021.29 1021.55 1021.82 1022.09 1022.35 1022.58 1022.78 1022.95
1017.28 1017.52 1017.81 1018.13 1018.47 1018.80 1019.11 1019.39 1019.63 1019.83 1020.00 1020.12 1020.20 1020.23 1020.22 1020.15 1020.02 1019.85 1019.64 1019.42 1019.21 1019.05 1018.94 1018.90 1018.95 1019.07 1019.25 1019.47 1019.71 1019.95 1020.19 1020.42 1020.65 1020.89 1021.14 1021.40 1021.67 1021.96 1022.24 1022.50 1022.74 1022.96 1023.15
1017.06 1017.26 1017.51 1017.81 1018.14 1018.46 1018.77 1019.05 1019.29 1019.50 1019.68 1019.84 1019.96 1020.05 1020.10 1020.09 1020.01 1019.88 1019.70 1019.49 1019.27 1019.08 1018.94 1018.88 1018.90 1019.00 1019.17 1019.38 1019.64 1019.91 1020.18 1020.45 1020.71 1020.98 1021.25 1021.53 1021.82 1022.11 1022.39 1022.66 1022.90 1023.12 1023.31
1016.92 1017.06 1017.27 1017.53 1017.82 1018.11 1018.39 1018.65 1018.89 1019.10 1019.30 1019.49 1019.66 1019.82 1019.94 1020.01 1020.01 1019.94 1019.81 1019.63 1019.42 1019.22 1019.06 1018.96 1018.94 1019.01 1019.14 1019.35 1019.60 1019.88 1020.17 1020.47 1020.77 1021.07 1021.37 1021.67 1021.97 1022.27 1022.55 1022.81 1023.05 1023.27 1023.46
1016.84 1016.94 1017.10 1017.30 1017.54 1017.79 1018.03 1018.25 1018.46 1018.66 1018.87 1019.08 1019.30 1019.52 1019.72 1019.88 1019.97 1019.98 1019.92 1019.79 1019.61 1019.42 1019.24 1019.10 1019.04 1019.05 1019.15 1019.32 1019.55 1019.82 1020.12 1020.44 1020.77 1021.10 1021.44 1021.77 1022.09 1022.39 1022.68 1022.94 1023.18 1023.39 1023.59
1016.83 1016.87 1016.98 1017.14 1017.32 1017.51 1017.69 1017.87 1018.04 1018.22 1018.42 1018.64 1018.89 1019.16 1019.42 1019.66 1019.84 1019.94 1019.95 1019.89 1019.75 1019.58 1019.40 1019.24 1019.13 1019.09 1019.13 1019.25 1019.44 1019.69 1019.98 1020.31 1020.67 1021.04 1021.41 1021.77 1022.13 1022.46 1022.76 1023.03 1023.28 1023.49 1023.69
1016.83 1016.85 1016.91 1017.01 1017.13 1017.27 1017.40 1017.52 1017.65 1017.79 1017.96 1018.17 1018.43 1018.72 1019.03 1019.33 1019.58 1019.76 1019.85 1019.85 1019.78 1019.64 1019.47 1019.30 1019.16 1019.07 1019.05 1019.12 1019.26 1019.47 1019.75 1020.09 1020.46 1020.86 1021.28 1021.68 1022.08 1022.44 1022.77 1023.07 1023.33 1023.56 1023.77
1016.83 1016.81 1016.84 1016.90 1016.97 1017.06 1017.14 1017.21 1017.29 1017.38 1017.52 1017.70 1017.94 1018.23 1018.55 1018.87 1019.17 1019.42 1019.58 1019.65 1019.64 1019.55 1019.41 1019.24 1019.09 1018.97 1018.91 1018.92 1019.02 1019.20 1019.46 1019.79 1020.18 1020.61 1021.06 1021.51 1021.95 1022.36 1022.73 1023.05 1023.33 1023.58 1023.80
1016.78 1016.74 1016.74 1016.76 1016.81 1016.85 1016.89 1016.93 1016.96 1017.01 1017.10 1017.24 1017.44 1017.69 1018.00 1018.33 1018.65 1018.93 1019.15 1019.29 1019.34 1019.31 1019.21 1019.08 1018.93 1018.80 1018.72 1018.70 1018.76 1018.91 1019.15 1019.47 1019.87 1020.32 1020.81 1021.30 1021.78 1022.23 1022.63 1022.99 1023.29 1023.56 1023.80
1016.65 1016.60 1016.58 1016.58 1016.60 1016.62 1016.64 1016.65 1016.65 1016.67 1016.71 1016.80 1016.95 1017.16 1017.43 1017.74 1018.05 1018.36 1018.61 1018.80 1018.92 1018.95 1018.92 1018.83 1018.72 1018.61 1018.53 1018.50 1018.54 1018.68 1018.90 1019.22 1019.63 1020.09 1020.60 1021.12 1021.62 1022.10 1022.53 1022.91 1023.23 1023.51 1023.76
1016.44 1016.37 1016.34 1016.33 1016.34 1016.36 1016.37 1016.37 1016.36 1016.35 1016.36 1016.41 1016.50 1016.66 1016.88 1017.15 1017.45 1017.75 1018.03 1018.26 1018.43 1018.53 1018.57 1018.55 1018.49 1018.43 1018.38 1018.37 1018.42 1018.56 1018.79 1019.11 1019.51 1019.98 1020.49 1021.01 1021.53 1022.01 1022.45 1022.83 1023.16 1023.45 1023.69
1016.14 1016.06 1016.02 1016.01 1016.02 1016.04 1016.06 1016.06 1016.05 1016.03 1016.02 1016.04 1016.10 1016.21 1016.39 1016.61 1016.88 1017.16 1017.45 1017.71 1017.93 1018.09 1018.20 1018.26 1018.28 1018.28 1018.29 1018.33 1018.41 1018.58 1018.82 1019.14 1019.54 1020.01 1020.50 1021.01 1021.51 1021.97 1022.40 1022.76 1023.08 1023.36 1023.60
1015.77 1015.68 1015.63 1015.62 1015.63 1015.66 1015.69 1015.70 1015.70 1015.69 1015.68 1015.69 1015.72 1015.81 1015.94 1016.13 1016.36 1016.62 1016.90 1017.18 1017.43 1017.65 1017.82 1017.96 1018.06 1018.15 1018.23 1018.34 1018.49 1018.69 1018.96 1019.30 1019.70 1020.15 1020.62 1021.10 1021.56 1021.99 1022.37 1022.70 1022.99 1023.24 1023.47
1015.36 1015.26 1015.20 1015.17 1015.18 1015.21 1015.25 1015.27 1015.29 1015.29 1015.29 1015.30 1015.33 1015.40 1015.51 1015.67 1015.88 1016.12 1016.39 1016.66 1016.93 1017.19 1017.42 1017.62 1017.80 1017.97 1018.15 1018.33 1018.56 1018.82 1019.13 1019.50 1019.90 1020.33 1020.78 1021.21 1021.62 1021.99 1022.32 1022.61 1022.86 1023.09 1023.30
1014.93 1014.81 1014.73 1014.69 1014.68 1014.70 1014.73 1014.76 1014.79 1014.81 1014.82 1014.85 1014.89 1014.96 1015.06 1015.21 1015.40 1015.62 1015.87 1016.13 1016.41 1016.68 1016.94 1017.20 1017.45 1017.70 1017.96 1018.24 1018.54 1018.88 1019.25 1019.64 1020.05 1020.47 1020.89 1021.27 1021.63 1021.94 1022.21 1022.45 1022.66 1022.86 1023.05
1014.51 1014.36 1014.26 1014.19 1014.15 1014.14 1014.15 1014.16 1014.18 1014.21 1014.25 1014.29 1014.35 1014.44 1014.56 1014.70 1014.88 1015.09 1015.32 1015.56 1015.82 1016.10 1016.38 1016.67 1016.97 1017.29 1017.63 1017.99 1018.37 1018.78 1019.21 1019.64 1020.07 1020.48 1020.86 1021.21 1021.51 1021.77 1021.99 1022.18 1022.36 1022.53 1022.72
1014.08 1013.92 1013.78 1013.67 1013.59 1013.53 1013.50 1013.49 1013.49 1013.52 1013.56 1013.63 1013.72 1013.84 1013.97 1014.13 1014.31 1014.51 1014.72 1014.94 1015.18 1015.44 1015.72 1016.03 1016.36 1016.73 1017.13 1017.57 1018.02 1018.50 1018.98 1019.45 1019.89 1020.30 1020.67 1020.98 1021.23 1021.45 1021.62 1021.78 1021.94 1022.10 1022.29
1013.66 1013.48 1013.31 1013.15 1013.02 1012.91 1012.82 1012.77 1012.74 1012.75 1012.80 1012.89 1013.01 1013.16 1013.33 1013.51 1013.70 1013.89 1014.09 1014.29 1014.51 1014.74 1015.01 1015.32 1015.67 1016.06 1016.51 1017.00 1017.51 1018.04 1018.57 1019.07 1019.54 1019.95 1020.29 1020.58 1020.80 1020.98 1021.13 1021.27 1021.41 1021.58 1021.77
1013.24 1013.04 1012.84 1012.65 1012.46 1012.29 1012.15 1012.04 1011.98 1011.97 1012.02 1012.13 1012.28 1012.46 1012.66 1012.87 1013.08 1013.28 1013.47 1013.65 1013.85 1014.06 1014.31 1014.60 1014.95 1015.37 1015.84 1016.36 1016.91 1017.48 1018.04 1018.57 1019.04 1019.45 1019.79 1020.05 1020.26 1020.41 1020.54 1020.67 1020.80 1020.97 1021.18
1012.81 1012.60 1012.38 1012.15 1011.92 1011.70 1011.51 1011.36 1011.27 1011.24 1011.29 1011.41 1011.58 1011.79 1012.03 1012.27 1012.50 1012.71 1012.90 1013.07 1013.25 1013.45 1013.67 1013.96 1014.30 1014.72 1015.20 1015.74 1016.32 1016.90 1017.48 1018.02 1018.49 1018.90 1019.22 1019.47 1019.66 1019.80 1019.92 1020.03 1020.17 1020.34 1020.55
1012.38 1012.17 1011.94 1011.69 1011.43 1011.18 1010.95 1010.76 1010.65 1010.61 1010.65 1010.78 1010.97 1011.21 1011.47 1011.73 1011.98 1012.21 1012.40 1012.58 1012.75 1012.93 1013.15 1013.42 1013.76 1014.18 1014.66 1015.20 1015.78 1016.37 1016.95 1017.49 1017.96 1018.35 1018.66 1018.90 1019.07 1019.20 1019.31 1019.42 1019.56 1019.73 1019.94
Thickness
5726 5725 5723 5722 5721 5720 5719 5718 5717 5717 5717 5717 5717 5717 5717 5717 5717 5717 5718 5718 5718 5719 5719 5718 5718 5717 5716 5715 5714 5714 5713 5712 5712 5711 5710 5710 5709 5708 5707 5706 5705 5704 5703
5724 5722 5720 5719 5718 5717 5716 5715 5714 5714 5714 5714 5714 5714 5714 5714 5714 5715 5715 5715 5716 5716 5716 5716 5716 5715 5714 5713 5712 5711 5711 5710 5709 5709 5708 5708 5707 5705 5704 5703 5703 5702 5701
5722 5720 5718 5716 5716 5714 5713 5712 5711 5710 5710 5710 5710 5711 5711 5711 5712 5712 5713 5713 5713 5713 5714 5713 5713 5713 5712 5711 5710 5709 5709 5708 5707 5707 5706 5705 5704 5703 5702 5701 5700 5699 5699
5719 5717 5715 5714 5713 5712 5710 5709 5708 5707 5706 5706 5706 5707 5708 5708 5708 5708 5709 5710 5710 5710 5710 5710 5710 5709 5709 5709 5707 5706 5706 5705 5705 5704 5703 5703 5702 5700 5699 5698 5697 5697 5696
5718 5715 5714 5712 5711 5709 5707 5706 5704 5703 5702 5702 5702 5703 5703 5704 5704 5705 5705 5706 5706 5707 5707 5707 5706 5706 5706 5705 5705 5704 5703 5702 5702 5701 5700 5700 5699 5698 5697 5696 5695 5694 5694
5716 5714 5712 5710 5708 5706 5704 5703 5701 5700 5698 5698 5698 5698 5698 5699 5700 5700 5701 5702 5702 5703 5703 5703 5703 5702 5702 5702 5702 5701 5701 5700 5700 5699 5698 5697 5696 5695 5695 5694 5693 5692 5691
5714 5711 5709 5707 5705 5703 5701 5700 5698 5696 5694 5694 5692 5691 5693 5694 5695 5696 5697 5697 5698 5698 5699 5699 5699 5699 5700 5699 5699 5698 5698 5698 5697 5696 5695 5694 5693 5692 5691 5691 5690 5689 5688
5711 5709 5707 5705 5702 5700 5698 5696 5695 5692 5690 5689 5687 5684 5683 5686 5690 5692 5692 5693 5694 5694 5694 5695 5695 5696 5696 5696 5696 5696 5696 5695 5694 5693 5692 5691 5690 5689 5688 5688 5687 5686 5685
5708 5707 5705 5703 5700 5697 5694 5693 5692 5689 5686 5684 5684 5681 5678 5677 5680 5685 5687 5689 5689 5689 5690 5691 5691 5691 5692 5692 5692 5692 5692 5692 5691 5690 5689 5688 5687 5686 5685 5684 5683 5683 5682
5705 5703 5702 5700 5698 5695 5692 5690 5689 5687 5684 5681 5679 5679 5679 5678 5675 5675 5679 5682 5683 5684 5685 5686 5687 5687 5687 5687 5688 5688 5688 5688 5687 5686 5685 5684 5683 5682 5682 5680 5679 5679 5678
5702 5700 5698 5697 5694 5692 5690 5687 5685 5683 5682 5679 5677 5675 5673 5672 5672 5671 5671 5673 5675 5678 5680 5681 5681 5682 5682 5683 5683 5683 5684 5683 5683 5682 5681 5680 5679 5678 5677 5676 5676 5675 5674
5697 5696 5695 5693 5691 5689 5686 5683 5681 5679 5678 5676 5674 5672 5671 5669 5668 5666 5666 5666 5667 5671 5673 5675 5676 5676 5677 5678 5678 5679 5679 5678 5678 5677 5677 5676 5675 5674 5673 5672 5672 5671 5670
5693 5692 5691 5689 5687 5686 5683 5680 5678 5675 5674 5672 5670 5669 5668 5667 5666 5664 5662 5661 5661 5664 5665 5668 5670 5671 5672 5673 5673 5673 5674 5674 5673 5672 5672 5671 5670 5669 5668 5667 5667 5666 5665
5691 5690 5688 5686 5684 5682 5680 5677 5675 5672 5669 5668 5666 5665 5663 5663 5662 5661 5659 5657 5656 5656 5657 5661 5664 5666 5667 5667 5668 5668 5668 5668 5668 5667 5667 5666 5665 5664 5664 5663 5662 5662 5661
5689 5687 5684 5682 5680 5678 5675 5673 5670 5668 5665 5663 5662 5660 5659 5658 5657 5657 5656 5655 5652 5650 5652 5655 5657 5660 5660 5661 5662 5662 5662 5663 5663 5662 5661 5660 5659 5659 5659 5658 5657 5657 5657
5685 5682 5679 5677 5675 5673 5670 5668 5665 5663 5660 5659 5657 5655 5654 5653 5652 5651 5651 5650 5649 5648 5648 5651 5651 5653 5654 5655 5656 5656 5656 5657 5657 5656 5655 5654 5654 5654 5654 5653 5652 5652 5652
5680 5677 5674 5671 5669 5668 5666 5663 5661 5658 5656 5654 5652 5650 5649 5648 5647 5646 5645 5644 5643 5643 5642 5645 5645 5647 5647 5648 5649 5649 5650 5649 5650 5650 5649 5649 5648 5648 5648 5647 5647 5647 5647
5674 5672 5668 5666 5664 5662 5659 5657 5655 5654 5651 5649 5647 5646 5644 5643 5642 5641 5640 5640 5639 5638 5637 5638 5639 5639 5640 5641 5642 5642 5643 5643 5643 5644 5644 5643 5643 5643 5642 5642 5642 5642 5642
5669 5666 5663 5660 5658 5656 5653 5652 5650 5648 5646 5644 5642 5641 5640 5638 5636 5635 5635 5634 5633 5633 5631 5631 5632 5632 5633 5633 5633 5634 5635 5635 5636 5637 5637 5637 5637 5637 5636 5636 5636 5636 5636
5664 5661 5658 5656 5653 5650 5648 5646 5644 5642 5640 5639 5637 5635 5634 5632 5631 5629 5628 5627 5626 5625 5625 5624 5625 5625 5624 5625 5625 5625 5626 5627 5629 5631 5631 5631 5631 5630 5631 5631 5632 5631 5631
5659 5655 5653 5651 5648 5645 5644 5641 5639 5637 5635 5633 5631 5629 5628 5627 5626 5624 5623 5622 5620 5619 5618 5618 5617 5617 5617 5617 5618 5618 5618 5620 5622 5623 5624 5624 5624 5624 5625 5626 5626 5626 5626
5653 5650 5647 5645 5643 5641 5639 5637 5634 5632 5629 5627 5625 5623 5622 5621 5620 5619 5618 5617 5616 5614 5613 5611 5611 5611 5612 5612 5612 5612 5612 5612 5614 5617 5616 5618 5618 5619 5620 5621 5622 5622 5622
5648 5645 5642 5640 5638 5636 5634 5632 5630 5627 5624 5622 5619 5617 5617 5616 5614 5613 5612 5611 5610 5609 5608 5607 5606 5606 5606 5607 5605 5605 5606 5606 5609 5611 5609 5611 5612 5613 5615 5616 5617 5617 5617
5644 5641 5638 5636 5633 5631 5629 5627 5625 5622 5619 5616 5614 5612 5610 5609 5608 5606 5605 5604 5603 5603 5602 5601 5602 5602 5602 5601 5600 5600 5600 5600 5602 5603 5603 5604 5606 5607 5610 5611 5611 5612 5611
5639 5636 5634 5631 5628 5626 5624 5622 5619 5616 5613 5611 5609 5607 5605 5603 5602 5600 5598 5597 5597 5597 5596 5596 5596 5596 5595 5595 5594 5593 5593 5594 5596 5598 5597 5598 5600 5600 5602 5604 5605 5606 5605
5634 5631 5628 5626 5624 5621 5618 5615 5612 5610 5607 5605 5603 5601 5600 5598 5596 5594 5592 5591 5590 5591 5590 5590 5589 5590 5589 5590 5589 5589 5590 5589 5590 5592 5593 5591 5592 5591 5594 5597 5597 5598 5598